Location: Pettit
(39.0209°N, 79.7181°W)
Time: 10:55:36
(UTC+00:00)

ACS3 Solar Sail - Visible Passes

Search period start: 18 April 2026 00:00
Search period end: 28 April 2026 00:00
Orbit: 872 x 975 km, 97.2° (Epoch: 17 April)

Date Brightness Start Highest point End Pass type
(mag) Time Alt. Az. Time Alt. Az. Time Alt. Az.
18 Apr 3.4 05:47:26 10° NNE 05:50:27 26° NE 05:50:27 26° NE visible
18 Apr 3.0 07:30:01 10° N 07:34:00 29° NW 07:34:00 29° NW visible
19 Apr 3.2 05:56:42 10° NNE 06:00:05 31° NE 06:00:05 31° NE visible
19 Apr 3.1 07:39:40 10° NNW 07:43:37 25° NW 07:43:37 25° NW visible
20 Apr 3.0 06:05:55 10° NNE 06:09:38 37° NE 06:09:38 37° NE visible
20 Apr 3.3 07:49:18 10° NNW 07:53:09 22° WNW 07:53:09 22° WNW visible
21 Apr 2.8 06:15:05 10° NNE 06:19:05 42° NNE 06:19:05 42° NNE visible
21 Apr 3.4 07:58:55 10° NNW 08:02:36 18° WNW 08:02:36 18° WNW visible
22 Apr 2.6 06:24:14 10° NNE 06:28:27 47° NNE 06:28:27 47° NNE visible
22 Apr 3.6 08:08:36 10° NNW 08:11:53 15° WNW 08:11:58 15° WNW visible
23 Apr 4.2 04:53:34 10° ENE 04:54:12 11° ENE 04:54:12 11° ENE visible
23 Apr 2.4 06:33:18 10° N 06:37:44 51° N 06:37:44 51° N visible
23 Apr 3.7 08:18:25 10° NW 08:20:48 12° WNW 08:21:14 12° WNW visible
24 Apr 4.0 05:01:48 10° NE 05:03:24 14° ENE 05:03:24 14° ENE visible
24 Apr 2.4 06:42:20 10° N 06:46:55 51° NNW 06:46:55 51° NNW visible
24 Apr 3.9 08:29:15 10° NW 08:29:37 10° WNW 08:29:58 10° WNW visible
25 Apr 3.8 05:10:11 10° NE 05:12:31 17° ENE 05:12:31 17° ENE visible
25 Apr 2.4 06:51:17 10° N 06:56:01 49° NNW 06:56:01 49° NNW visible
26 Apr 3.6 05:18:38 10° NE 05:21:33 21° ENE 05:21:33 21° ENE visible
26 Apr 2.5 07:00:13 10° N 07:05:02 44° NW 07:05:02 44° NW visible
27 Apr 3.4 05:27:06 10° NNE 05:30:29 25° ENE 05:30:29 25° ENE visible
27 Apr 2.6 07:09:05 10° N 07:13:58 39° NW 07:13:58 39° NW visible
